This is the latest recevied weather packets stored in our database for station/object KB1YTR-1. If no packets are shown the sender has not sent any weather packets the latest 10 day(s).
| Time | Temp. | Humidity | Pressure | Rain* | Wind** | Luminosity | Snow |
|---|---|---|---|---|---|---|---|
| 1787878727 | 18.89° C | 71% | 1017 hPa | 0 mm | - | - | - |
| 1787877829 | 19.44° C | 68% | 1017 hPa | 0 mm | - | - | - |
| 1787877035 | 21.11° C | 61% | 1017.3 hPa | 0 mm | - | - | - |
| 1787876216 | 21.67° C | 59% | 1016.8 hPa | 0 mm | - | - | - |
| 1787875445 | 22.22° C | 57% | 1017.2 hPa | 0 mm | - | - | - |
| 1787874603 | 22.78° C | 54% | 1017.2 hPa | 0 mm | - | - | - |
| 1787873870 | 22.78° C | 54% | 1017.1 hPa | 0 mm | - | - | - |
| 1787873110 | 23.89° C | 54% | 1017.1 hPa | 0 mm | - | - | - |
| 1787872380 | 23.89° C | 52% | 1017.1 hPa | 0 mm | - | - | - |
| 1787871655 | 23.89° C | 51% | 1017.1 hPa | 0 mm | - | - | - |
| 1787870825 | 23.89° C | 53% | 1017.1 hPa | 0 mm | - | - | - |
| 1787870030 | 23.89° C | 52% | 1017.2 hPa | 0 mm | - | - | - |
| 1787869147 | 23.89° C | 52% | 1017.1 hPa | 0 mm | - | - | - |
| 1787868380 | 23.89° C | 51% | 1017 hPa | 0 mm | - | - | - |
| 1787867635 | 22.78° C | 53% | 1017.3 hPa | 0 mm | - | - | - |
| 1787866907 | 23.33° C | 52% | 1017.4 hPa | 0 mm | - | - | - |
| 1787866032 | 22.78° C | 53% | 1017.1 hPa | 0 mm | - | - | - |
| 1787865169 | 23.89° C | 50% | 1017.3 hPa | 0 mm | - | - | - |
| 1787864369 | 23.89° C | 49% | 1017.2 hPa | 0 mm | - | - | - |
| 1787863508 | 23.89° C | 49% | 1017.4 hPa | 0 mm | - | - | - |
| 1787862668 | 24.44° C | 52% | 1017.3 hPa | 0 mm | - | - | - |
| 1787861851 | 23.89° C | 52% | 1017.3 hPa | 0 mm | - | - | - |
| 1787861106 | 23.33° C | 57% | 1017.4 hPa | 0 mm | - | - | - |
| 1787860356 | 23.89° C | 54% | 1017.4 hPa | 0 mm | - | - | - |
| 1787859505 | 23.33° C | 56% | 1017.4 hPa | 0 mm | - | - | - |
* Rain latest hour (hover to see other rain measurements)
** Current wind speed in m/s (hover to see current wind gust speed)